Wind_Speed
14 11 13 16 17 16 16 15 14 14 12 12 12 12 10 9 8 7 6 7 7 7 8 7 7 6 5 4 1 0 1 2 1 0 1 2 4 6 8 7 7 5 6
16 11 13 15 16 15 15 14 14 14 12 12 11 11 10 9 8 7 6 7 7 7 8 8 7 6 5 4 3 3 2 0 1 2 2 4 3 4 6 7 8 8 9
15 15 14 14 15 15 15 13 13 14 11 12 12 12 12 10 10 10 9 9 8 9 9 8 9 8 7 7 7 8 6 5 4 3 3 4 3 6 7 7 9 9 10
18 19 17 16 16 17 16 13 13 13 12 12 11 12 13 13 14 13 13 12 12 11 10 9 9 8 7 8 7 6 6 6 6 7 7 8 7 6 4 3 7 11 12
19 21 19 18 17 18 19 17 15 15 14 13 13 14 14 14 15 15 14 13 12 11 9 7 6 6 5 5 5 6 5 7 5 5 4 7 9 8 7 5 7 9 12
19 20 19 18 17 17 18 19 20 19 18 17 15 15 14 15 15 15 14 13 12 11 9 8 8 6 4 5 5 6 6 5 5 6 6 7 10 10 9 8 6 11 12
19 19 17 16 15 15 15 16 16 17 17 16 16 17 16 16 16 15 15 14 13 11 9 8 8 8 7 7 6 7 7 6 6 7 7 6 9 12 13 11 9 8 9
16 17 16 15 14 14 14 14 15 15 17 17 18 18 17 17 17 14 12 12 14 9 9 9 8 9 8 7 6 7 7 7 7 7 8 8 8 10 13 14 13 5 5
13 14 14 13 13 12 13 13 14 16 16 16 17 18 15 15 14 12 12 12 13 12 11 9 9 7 8 12 10 10 12 12 9 6 5 7 8 9 11 12 8 6 3
13 12 13 12 11 12 12 12 13 14 14 15 15 15 15 14 11 11 11 12 15 19 17 14 7 10 10 11 10 12 13 11 10 10 7 8 8 9 9 12 10 3 4
13 12 11 11 11 10 10 10 11 12 13 13 13 12 12 12 12 10 10 10 9 9 13 13 16 13 13 13 11 15 23 20 10 9 12 12 9 8 8 7 9 4 3
12 12 11 11 11 10 11 10 11 13 13 12 12 13 13 12 11 11 10 11 12 11 9 9 13 12 12 14 13 14 23 19 6 6 15 16 14 11 11 10 6 4 3
12 11 10 10 10 11 10 11 11 11 11 11 11 12 12 11 10 10 10 10 10 9 9 9 10 10 11 11 10 13 15 18 16 10 17 10 11 10 11 13 8 6 4
11 10 10 10 10 9 9 9 9 9 9 10 9 9 9 9 9 9 10 9 9 9 9 8 9 9 8 9 8 9 10 12 12 11 12 11 7 8 10 13 10 8 8
10 9 9 9 9 9 8 8 8 8 9 10 10 10 8 8 8 8 8 8 8 10 11 11 10 11 11 9 8 9 10 9 8 9 8 11 6 4 7 10 12 12 11
8 7 8 8 9 9 8 8 8 8 9 9 9 9 8 6 6 8 9 10 10 11 12 12 12 12 12 12 10 10 11 10 9 8 9 10 11 11 14 11 9 14 9
3 3 5 7 9 8 8 7 8 8 8 8 9 8 8 9 9 10 10 11 11 14 15 15 14 13 12 11 11 10 10 10 10 11 11 11 10 12 9 5 5 6 10
3 2 1 4 7 5 8 8 9 9 10 10 10 9 10 11 11 10 10 11 12 14 15 16 16 15 13 12 11 10 8 8 11 12 13 13 13 15 13 10 10 12 13
6 4 3 2 3 7 10 10 11 11 11 11 10 10 10 10 9 9 8 8 10 11 12 14 16 16 16 15 14 12 10 10 10 12 14 15 15 16 17 13 11 8 12
7 6 6 6 7 8 10 10 10 10 10 9 7 8 6 4 5 6 6 7 8 10 12 13 14 14 14 15 15 14 14 13 13 13 13 14 15 15 15 13 9 9 7
11 11 11 9 8 8 9 9 9 8 7 6 6 5 4 5 6 6 7 8 8 10 12 15 16 16 16 15 12 14 15 14 16 14 14 15 16 16 15 15 12 12 10
8 9 9 10 9 8 8 7 6 5 4 3 1 1 2 5 6 5 5 6 8 9 12 14 15 15 18 16 16 15 14 12 14 15 17 17 18 18 18 17 17 15 17
7 7 7 7 9 8 8 7 5 4 2 1 2 2 4 7 9 10 11 12 12 12 13 14 15 17 17 16 19 19 20 19 19 16 16 16 17 20 19 19 19 18 18
7 6 5 4 5 6 6 4 3 1 2 4 5 5 6 9 10 12 12 13 15 16 17 19 20 21 20 19 18 21 21 22 23 22 25 20 20 19 20 20 20 21 21
9 7 5 5 4 2 1 1 1 2 3 5 7 9 10 12 14 15 16 16 19 21 23 25 25 26 26 26 25 26 26 24 25 27 22 29 23 23 21 24 26 25 24
7 6 4 0 3 4 4 4 5 5 7 9 11 12 13 12 15 17 18 21 23 23 25 27 29 31 32 32 32 32 30 29 31 31 27 28 29 29 25 24 29 33 31
Wind_Direction
99 108 118 117 115 117 116 118 116 111 111 110 108 111 107 101 96 93 89 88 92 92 91 91 86 84 81 82 54 72 152 177 176 78 261 271 259 238 234 208 201 198 216
102 110 112 110 113 117 115 118 118 112 110 104 99 92 88 85 84 83 82 82 81 86 85 80 76 68 67 69 48 36 51 24 201 222 297 315 279 252 241 234 223 210 222
109 109 103 101 107 112 114 117 114 111 111 102 94 90 86 86 85 85 82 79 80 76 77 85 84 84 84 82 82 80 75 61 50 36 51 8 316 229 212 219 225 221 222
110 107 104 102 103 102 101 103 104 107 106 106 106 100 93 83 80 81 81 80 79 78 75 82 88 80 71 70 70 75 88 77 61 62 57 55 38 3 337 256 239 229 220
111 108 108 107 105 100 93 89 97 103 104 101 99 96 100 92 87 85 83 82 79 76 75 79 76 72 75 71 69 74 82 78 68 69 43 41 38 27 16 330 253 240 228
113 109 112 113 111 104 96 90 90 93 91 88 87 98 96 93 88 85 83 78 76 76 71 63 55 53 61 60 45 67 69 57 59 63 42 34 34 32 20 357 269 240 228
118 111 112 114 114 110 106 102 97 95 90 85 79 99 94 94 93 92 88 84 83 71 70 61 55 47 35 43 49 44 49 49 43 39 30 34 30 22 15 6 357 233 219
121 119 117 116 115 113 109 104 101 97 91 87 86 98 100 100 91 88 79 81 61 59 65 57 40 30 24 18 26 25 33 40 37 33 5 1 18 27 20 13 16 83 185
116 123 126 123 120 115 107 99 96 96 93 89 90 90 104 104 90 81 67 64 43 48 76 59 42 28 15 25 27 26 1 355 360 14 358 351 0 13 21 22 13 12 358
110 113 116 116 118 120 112 105 100 96 92 90 89 90 95 99 97 82 67 60 70 68 59 43 32 3 13 17 20 12 351 329 327 327 328 323 338 350 6 13 7 340 349
113 115 114 112 114 119 117 110 103 96 90 86 91 94 91 88 85 75 65 57 57 52 37 15 33 45 40 28 39 21 3 346 290 311 315 305 305 323 331 355 6 337 330
120 121 118 115 113 112 112 108 102 98 94 89 87 87 86 84 79 69 59 52 49 45 44 45 41 36 39 37 37 16 10 22 11 331 316 291 292 305 308 322 335 326 273
125 127 127 119 113 110 108 105 101 99 98 92 83 79 78 73 62 56 48 41 40 41 35 26 39 35 33 34 21 20 25 38 45 14 2 304 280 281 294 297 297 303 265
129 131 128 121 118 116 111 108 105 101 98 92 83 72 66 64 59 49 41 35 27 22 26 21 20 26 26 30 31 12 19 22 22 23 26 40 325 263 293 282 282 290 283
139 139 135 128 121 118 113 109 102 100 92 88 85 82 75 63 57 52 42 31 19 8 8 6 7 1 4 13 9 357 7 13 12 10 16 5 14 330 307 299 259 227 262
140 136 125 117 114 111 110 106 106 98 99 97 94 92 93 85 67 51 39 31 19 13 10 10 9 1 359 355 357 356 353 357 353 355 7 12 2 355 340 318 253 248 247
134 129 121 120 119 103 98 107 106 106 105 103 98 98 84 69 57 53 50 44 34 29 23 16 10 10 5 357 354 356 355 350 348 343 348 357 353 344 343 347 292 263 239
165 168 152 120 127 111 124 123 116 114 109 105 99 90 75 62 52 43 36 36 37 28 28 25 20 18 9 6 359 347 356 350 339 342 341 339 340 342 342 320 309 271 260
147 162 160 152 124 117 123 125 123 121 112 105 99 90 80 69 58 44 33 44 30 32 38 34 32 23 16 11 4 352 351 345 344 343 339 335 336 335 334 329 310 291 260
112 127 125 131 123 127 128 131 130 128 120 110 110 105 95 63 37 40 32 26 24 25 22 18 15 11 7 8 3 1 358 351 350 349 344 333 330 327 323 324 318 300 274
88 111 122 126 124 122 141 144 147 139 122 116 103 88 42 31 29 19 10 21 17 9 359 1 356 354 352 341 342 344 350 354 351 343 340 331 326 326 318 307 308 302 282
93 103 122 139 146 133 125 135 139 145 151 153 176 358 352 358 354 345 345 343 336 340 339 337 346 348 340 334 333 331 328 327 326 327 327 327 323 317 313 312 297 288 280
122 115 123 139 144 140 136 134 119 100 97 144 273 293 313 316 324 315 316 318 317 320 323 327 331 332 329 324 318 320 321 318 315 310 311 314 313 312 306 303 300 295 283
131 130 130 135 140 136 137 128 118 91 357 11 14 3 352 355 349 333 328 327 327 321 317 319 320 320 326 318 308 306 308 310 309 308 310 308 303 306 311 311 301 295 289
156 153 152 155 143 130 179 191 217 268 312 332 357 9 357 345 336 340 342 340 337 335 332 328 324 324 322 320 316 308 305 303 297 300 305 306 302 297 300 305 301 294 288
178 168 172 66 14 343 317 299 300 312 320 329 334 333 335 333 334 338 340 336 333 332 329 326 325 323 316 314 314 309 303 302 304 303 300 294 294 298 292 285 291 288 288
Height
5912 5913 5914 5914 5914 5915 5916 5918 5918 5919 5920 5921 5921 5921 5922 5923 5923 5923 5923 5923 5923 5923 5923 5923 5922 5922 5922 5921 5921 5921 5922 5921 5921 5922 5921 5921 5921 5922 5921 5920 5919 5921 5920
5913 5916 5916 5917 5917 5918 5918 5919 5919 5920 5922 5922 5923 5924 5925 5925 5924 5924 5924 5924 5924 5923 5924 5923 5923 5923 5922 5922 5921 5921 5921 5921 5922 5921 5921 5920 5920 5920 5920 5921 5920 5921 5921
5916 5917 5918 5919 5920 5921 5921 5921 5920 5921 5922 5923 5924 5925 5926 5926 5925 5925 5925 5924 5924 5925 5924 5923 5923 5923 5922 5922 5922 5921 5921 5921 5921 5920 5920 5919 5920 5919 5919 5920 5921 5922 5921
5918 5918 5919 5920 5922 5922 5922 5922 5922 5923 5924 5924 5925 5925 5926 5927 5926 5926 5925 5925 5925 5925 5925 5924 5924 5924 5924 5923 5923 5922 5920 5920 5921 5921 5921 5920 5920 5920 5919 5919 5921 5919 5920
5920 5920 5922 5923 5924 5924 5924 5924 5924 5925 5926 5927 5927 5926 5927 5927 5926 5926 5926 5927 5926 5926 5925 5925 5924 5924 5924 5924 5923 5923 5922 5922 5921 5922 5921 5921 5920 5920 5920 5918 5918 5918 5918
5922 5922 5924 5926 5927 5927 5927 5927 5927 5927 5928 5928 5927 5927 5927 5927 5927 5928 5928 5928 5928 5927 5926 5926 5925 5925 5924 5925 5925 5925 5924 5923 5922 5922 5921 5920 5920 5918 5918 5917 5916 5917 5917
5924 5925 5927 5928 5930 5930 5930 5930 5930 5929 5929 5929 5928 5928 5928 5928 5928 5929 5929 5928 5928 5928 5926 5926 5925 5925 5925 5925 5925 5925 5925 5924 5924 5925 5922 5920 5920 5920 5918 5916 5914 5914 5914
5926 5927 5928 5930 5931 5931 5931 5932 5932 5931 5931 5931 5930 5930 5930 5930 5930 5930 5930 5929 5929 5928 5927 5926 5926 5926 5925 5925 5926 5925 5924 5925 5926 5926 5924 5922 5921 5919 5917 5916 5914 5914 5915
5929 5928 5930 5931 5932 5933 5933 5933 5933 5933 5933 5933 5933 5932 5932 5932 5932 5931 5931 5930 5930 5928 5927 5927 5926 5926 5926 5925 5925 5926 5926 5925 5924 5925 5923 5922 5920 5918 5916 5915 5914 5915 5915
5930 5931 5931 5932 5933 5934 5934 5935 5935 5934 5935 5935 5934 5934 5934 5933 5933 5932 5931 5931 5930 5929 5929 5928 5924 5925 5925 5924 5924 5925 5925 5923 5922 5921 5922 5921 5919 5918 5916 5915 5914 5914 5914
5931 5932 5933 5934 5934 5935 5935 5936 5936 5936 5936 5936 5936 5935 5934 5934 5934 5933 5932 5932 5931 5931 5930 5929 5927 5926 5927 5925 5925 5925 5922 5919 5918 5918 5919 5918 5917 5917 5916 5915 5914 5914 5914
5932 5933 5934 5935 5935 5936 5936 5936 5937 5937 5937 5936 5936 5936 5935 5935 5935 5934 5934 5934 5933 5932 5931 5931 5930 5929 5928 5927 5926 5924 5921 5917 5917 5917 5916 5915 5915 5915 5916 5915 5914 5914 5914
5933 5934 5935 5936 5936 5937 5937 5937 5938 5938 5937 5937 5936 5937 5936 5936 5936 5936 5936 5935 5934 5934 5933 5932 5931 5930 5929 5928 5927 5923 5922 5920 5918 5917 5914 5911 5912 5912 5913 5913 5914 5914 5914
5933 5934 5935 5936 5936 5937 5938 5939 5939 5939 5938 5937 5938 5938 5937 5937 5937 5937 5936 5936 5935 5935 5934 5934 5932 5931 5930 5928 5927 5924 5922 5922 5920 5918 5916 5912 5910 5910 5911 5909 5910 5913 5914
5933 5934 5935 5936 5937 5938 5939 5939 5939 5939 5938 5938 5938 5938 5938 5938 5938 5937 5937 5937 5936 5935 5935 5934 5933 5931 5931 5929 5928 5926 5924 5923 5921 5919 5917 5914 5911 5910 5909 5908 5908 5908 5912
5935 5935 5936 5937 5938 5939 5939 5940 5939 5939 5939 5938 5938 5939 5938 5938 5937 5938 5938 5938 5937 5937 5936 5935 5933 5931 5930 5929 5929 5927 5925 5924 5922 5919 5917 5915 5913 5911 5907 5903 5904 5906 5908
5937 5937 5938 5938 5939 5940 5940 5940 5940 5939 5939 5939 5940 5940 5939 5939 5939 5939 5939 5938 5938 5936 5935 5934 5934 5932 5931 5929 5928 5927 5925 5923 5921 5920 5917 5915 5912 5910 5908 5905 5903 5902 5904
5938 5938 5938 5939 5939 5940 5940 5939 5940 5940 5940 5940 5941 5942 5941 5940 5940 5940 5940 5939 5937 5935 5933 5932 5932 5932 5931 5930 5928 5926 5924 5922 5920 5918 5917 5915 5912 5909 5907 5905 5903 5902 5901
5937 5937 5938 5938 5939 5940 5941 5940 5940 5941 5941 5941 5942 5942 5941 5941 5941 5940 5940 5938 5937 5935 5934 5933 5932 5931 5930 5929 5928 5927 5924 5922 5920 5917 5916 5915 5913 5910 5908 5905 5903 5901 5900
5937 5937 5938 5939 5939 5941 5942 5942 5942 5942 5942 5942 5942 5942 5942 5941 5940 5939 5938 5937 5937 5936 5935 5934 5933 5932 5930 5929 5928 5926 5924 5922 5920 5918 5917 5915 5913 5911 5909 5908 5905 5902 5900
5938 5938 5939 5939 5940 5941 5941 5942 5943 5943 5943 5942 5942 5943 5942 5941 5940 5939 5938 5937 5936 5935 5934 5933 5932 5931 5930 5929 5926 5924 5923 5921 5920 5918 5917 5915 5913 5910 5909 5907 5906 5904 5900
5941 5941 5941 5941 5941 5941 5942 5942 5942 5942 5942 5941 5941 5941 5940 5939 5938 5938 5937 5936 5935 5934 5933 5932 5930 5929 5927 5926 5926 5924 5921 5920 5917 5916 5914 5913 5911 5909 5907 5906 5905 5903 5903
5941 5942 5944 5944 5942 5941 5941 5942 5942 5941 5941 5940 5939 5939 5939 5939 5938 5937 5937 5935 5934 5932 5930 5930 5929 5927 5925 5924 5921 5921 5919 5917 5915 5913 5911 5909 5907 5905 5902 5901 5901 5901 5899
5942 5942 5943 5943 5943 5942 5942 5942 5941 5940 5939 5939 5938 5938 5938 5937 5937 5936 5935 5933 5932 5930 5928 5926 5925 5923 5922 5919 5918 5916 5915 5912 5911 5910 5906 5906 5902 5899 5899 5897 5895 5895 5895
5940 5942 5943 5943 5942 5943 5943 5942 5940 5939 5938 5938 5937 5936 5936 5935 5935 5934 5933 5931 5928 5927 5925 5922 5919 5917 5915 5914 5912 5909 5908 5907 5905 5904 5904 5899 5898 5895 5893 5891 5889 5887 5887
5940 5940 5941 5941 5940 5940 5940 5940 5940 5938 5937 5936 5935 5934 5933 5932 5932 5930 5929 5927 5925 5922 5920 5917 5915 5912 5909 5907 5904 5902 5901 5899 5897 5896 5896 5895 5893 5890 5888 5886 5883 5880 5880